Simultaneous Nadir Overpasses (SNOs) Predictions

Prediction of SNOs between NPP and TERRA Satellite Orbit:

Table of predicted SNOs for the next 14.0 days since TLE Epoch: 11/11/2014
Index Date (NPP) Time (NPP) Lat,Lon (NPP) SZA (NPP ) Date (TERRA) Time (TERRA) Lat,Lon (TERRA) SZA (TERRA ) Distance(km) Time Diff (sec)
1 11/13/2014 04:52:48 69.26, 106.42 87.12 11/13/2014 04:53:53 69.28, 106.39 87.14 2.46 65
2 11/13/2014 05:43:30 -69.17, -86.13 92.96 11/13/2014 05:43:23 -69.17, -86.13 92.97 0.58 7
3 11/13/2014 06:34:07 68.68, 81.84 86.57 11/13/2014 06:32:56 68.72, 80.95 86.59 36.28 71
4 11/15/2014 21:09:41 69.24,-137.78 87.79 11/15/2014 21:10:15 69.27,-137.72 87.82 3.50 34
5 11/15/2014 22:00:22 -69.10, 29.74 92.34 11/15/2014 21:59:46 -69.10, 29.69 92.35 1.72 36
6 11/18/2014 12:35:56 -69.61, 170.15 91.21 11/18/2014 12:37:08 -69.50, 170.85 91.31 29.86 72
7 11/18/2014 13:26:34 69.18, -21.93 88.39 11/18/2014 13:26:39 69.16, -21.96 88.36 3.11 5
8 11/18/2014 14:17:15 -69.03, 145.59 91.75 11/18/2014 14:16:09 -69.05, 145.54 91.75 2.76 66
9 11/21/2014 04:52:43 -69.24, -73.55 90.96 11/21/2014 04:53:34 -69.24, -73.58 90.96 1.34 51
10 11/21/2014 05:43:27 69.13, 93.91 88.95 11/21/2014 05:43:01 69.12, 93.91 88.93 1.61 26
11 11/21/2014 06:33:53 -68.18, -97.51 91.98 11/21/2014 06:32:45 -68.24, -99.56 91.97 85.00 68
12 11/23/2014 20:19:07 69.99,-126.18 90.34 11/23/2014 20:20:15 69.88,-124.44 90.26 67.64 68
13 11/23/2014 21:09:36 -69.20, 42.28
